NAVSTAR 22 (USA 66) 1 20959U 90103A 12035.84557719 .00000074 00000-0 10000-3 0 4489 2 20959 054.5795 244.0819 0121037 323.2370 036.0170 02.00553574155216 NAVSTAR 23 (USA 71) 1 21552U 91047A 12036.41016697 .00000036 00000-0 10000-3 0 4091 2 21552 054.3314 182.6208 0024405 043.9778 316.1748 01.91859550150736 NAVSTAR 26 (USA 83) 1 22014U 92039A 12036.14163310 -.00000037 00000-0 10000-3 0 2711 2 22014 056.4134 303.8382 0204730 066.9797 295.2140 02.00566392136951 NAVSTAR 27 (USA 84) 1 22108U 92058A 12036.24182975 -.00000067 00000-0 10000-3 0 1908 2 22108 056.2615 356.7775 0221445 294.6900 063.0182 02.00577648142138 NAVSTAR 33 (USA 92) 1 22700U 93042A 12036.27452090 -.00000066 00000-0 10000-3 0 5128 2 22700 056.4050 358.2987 0169553 091.9163 270.0276 02.00568246136291 NAVSTAR 35 (USA 96) 1 22877U 93068A 12035.91642136 .00000029 00000-0 10000-3 0 8674 2 22877 053.7366 179.0606 0098455 046.6003 314.1754 02.00550024133939 NAVSTAR 36 (USA 100) 1 23027U 94016A 12036.11021009 -.00000011 00000-0 10000-3 0 8299 2 23027 053.7084 115.8340 0069967 323.4129 036.1513 02.00560048131241 NAVSTAR 37 (USA 117) 1 23833U 96019A 12035.62642971 -.00000015 00000-0 10000-3 0 275 2 23833 053.3091 111.5154 0147848 066.8163 294.7766 02.00560069116212 NAVSTAR 38 (USA 126) 1 23953U 96041A 12035.98703901 .00000076 00000-0 10000-3 0 5173 2 23953 054.2487 240.2515 0109707 041.5565 319.3274 02.00564319114019 NAVSTAR 39 (USA 128) 1 24320U 96056A 12035.58425990 -.00000003 00000-0 10000-3 0 2676 2 24320 055.2342 056.9073 0025400 115.8762 244.4490 01.86497716112656 NAVSTAR 43 (USA 132) 1 24876U 97035A 12036.00284314 -.00000038 00000-0 10000-3 0 9834 2 24876 056.5532 304.1648 0044747 112.5567 247.9689 02.00557621106543 NAVSTAR 44 (USA 135) 1 25030U 97067A 12036.13113804 -.00000058 00000-0 10000-3 0 9327 2 25030 057.1626 004.4616 0121586 190.5889 169.1589 02.00559290104447 NAVSTAR 46 (USA 145) 1 25933U 99055A 12035.75514276 .00000005 00000-0 10000-3 0 4273 2 25933 050.8804 163.7463 0125846 058.5457 302.6397 02.00562399 90352 NAVSTAR 47 (USA 150) 1 26360U 00025A 12035.87254164 .00000076 00000-0 10000-3 0 5142 2 26360 053.3438 236.6307 0049098 072.4000 288.1838 02.00551244 86055 NAVSTAR 48 (USA 151) 1 26407U 00040A 12036.21816184 .00000006 00000-0 10000-3 0 4654 2 26407 056.0149 061.7461 0180299 254.4244 103.6438 02.00559805 84736 NAVSTAR 49 (USA 154) 1 26605U 00071A 12035.81926701 -.00000037 00000-0 10000-3 0 4824 2 26605 056.1482 302.6845 0064176 243.5114 115.8808 02.00553194 82324 NAVSTAR 50 (USA 156) 1 26690U 01004A 12035.67887612 .00000075 00000-0 10000-3 0 3556 2 26690 053.3313 239.7223 0129564 234.9468 123.8798 02.00564135 80736 NAVSTAR 51 (USA 166) 1 27663U 03005A 12036.05024714 .00000005 00000-0 10000-3 0 7770 2 27663 056.1102 061.3583 0063730 353.3501 006.6318 02.00572472 66090 NAVSTAR 52 (USA 168) 1 27704U 03010A 12035.10342772 .00000033 00000-0 10000-3 0 6763 2 27704 053.3706 179.4776 0186525 229.0215 129.3221 02.00564246 64868 NAVSTAR 53 (USA 175) 1 28129U 03058A 12035.73153527 .00000074 00000-0 10000-3 0 2507 2 28129 053.1888 239.9265 0058080 246.7551 112.6906 02.00560722 59580 NAVSTAR 54 (USA 177) 1 28190U 04009A 12036.17402106 -.00000010 00000-0 10000-3 0 2401 2 28190 054.9923 124.0665 0078202 006.6510 353.4758 02.00555748 57761 NAVSTAR 55 (USA 178) 1 28361U 04023A 12035.96267685 -.00000032 00000-0 10000-3 0 563 2 28361 055.0912 299.8129 0075657 188.3952 171.5349 02.00562564 55842 NAVSTAR 56 (USA 180) 1 28474U 04045A 12036.45358452 .00000027 00000-0 10000-3 0 9438 2 28474 053.7893 178.0611 0109118 196.0060 163.6074 02.00567828 53214 NAVSTAR 57 (USA 183) 1 28874U 05038A 12035.80757201 -.00000013 00000-0 10000-3 0 2066 2 28874 055.1408 121.0235 0072379 226.6230 132.7994 02.00569055 46622 NAVSTAR 58 (USA 190) 1 29486U 06042A 12035.42108207 -.00000065 +00000-0 +10000-3 0 05617 2 29486 056.1934 359.9914 0082644 307.1143 052.1301 02.00575996039313 NAVSTAR 59 (USA 192) 1 29601U 06052A 12036.36225290 .00000006 00000-0 10000-3 0 6203 2 29601 056.0588 060.3107 0037850 352.6659 007.3524 02.00574641 38245 NAVSTAR 60 (USA 196) 1 32260U 07047A 12036.18204339 -.00000028 00000-0 00000+0 0 3256 2 32260 054.2511 297.8543 0042677 357.7709 002.2663 02.00553987 31636 NAVSTAR 61 (USA 199) 1 32384U 07062A 12036.49332912 -.00000006 00000-0 10000-3 0 3614 2 32384 055.1679 121.4838 0024053 289.7655 070.0131 02.00566421 30368 NAVSTAR 62 (USA 201) 1 32711U 08012A 12036.08693870 -.00000065 00000-0 10000-3 0 1389 2 32711 055.9015 359.8292 0051306 190.8672 169.0236 02.00569746 28564 NAVSTAR 63 (USA 203) 1 34661U 09014A 12035.99564324 .00000003 00000-0 10000-3 0 1086 2 34661 055.7046 059.2705 0048658 048.1106 312.3691 02.00562395 21075 NAVSTAR 64 (USA 206) 1 35752U 09043A 12036.05259164 .00000078 00000-0 10000-3 0 8787 2 35752 054.5414 238.9763 0026034 011.6423 348.4681 02.00573038 18143 NAVSTAR 65 (USA 213) 1 36585U 10022A 12037.40061326 .00000006 00000-0 10000-3 0 7131 2 36585 055.4196 058.3902 0010412 028.2900 331.8402 02.00552616 12411 NAVSTAR 66 (USA 232) 1 37753U 11036A 12035.78737984 .00000031 00000-0 00000+0 0 1726 2 37753 055.0136 178.7355 0003781 040.1815 319.8100 02.00564989 4066